Weather History for Bend, OR

Change the Weather History Date:

Friday, November 23, 2012

  Actual Average (KRDM) Record (KRDM)
Temperature  
Mean Temperature 43 °F 35 °F  
Max Temperature 51 °F 46 °F 65 °F (1959)
Min Temperature 35 °F 24 °F -8 °F (1985)
Degree Days  
Heating Degree Days 22 30  
Month to date heating degree days 609  
Since 1 July heating degree days 1554  
Cooling Degree Days 0 0  
Month to date cooling degree days 0  
Year to date cooling degree days 222  
Moisture  
Dew Point 24 °F    
Average Humidity 47    
Maximum Humidity 65    
Minimum Humidity 35    
Precipitation  
Precipitation 0.00 in 0.04 in 0.64 in (1961)
Month to date precipitation 0.72  
Year to date precipitation 7.50  
Sea Level Pressure  
Sea Level Pressure 30.23 in    
Wind  
Wind Speed 11 mph (SSW)    
Max Wind Speed 22 mph    
Max Gust Speed -    
Visibility 10 miles    
Events      
T = Trace of Precipitation, MM = Missing Value Source: NWS Daily Summary

Daily Weather History Graph

Daily Weather History Graph

Search for Another Location

Airport:

Trip Planner

Search our weather history database for the weather conditions in past years. The results will help you decide how hot, cold, wet, or windy it might be!

Date:

Astronomy

Nov. 23, 2012 Rise Set
Actual Time 7:11 AM PST 4:31 PM PST
Civil Twilight 6:39 AM PST 5:03 PM PST
Nautical Twilight 6:03 AM PST 5:38 PM PST
Astronomical Twilight 5:29 AM PST 6:13 PM PST
Moon 1:55 PM PST (11/23) 2:26 AM PST (11/23)
Length of Visible Light 10h 24m
Length of Day
9h 20m
Waxing Gibbous, 80% of the Moon is Illuminated
Nov 23
Waxing Gibbous
Nov 28
Full
Dec 6
Last Quarter
Dec 13
New
Dec 19
First Quarter

Hourly Weather History & Observations

Time (PST) Temp. Windchill Dew Point Humidity Pressure Visibility Wind Dir Wind Speed Gust Speed Precip Events Conditions
12:15 AM 35.6 °F 30.7 °F 24.8 °F 65% 30.30 in 10.0 mi SSE 5.8 mph - N/A   Clear
12:55 AM 39.2 °F 31.2 °F 23.0 °F 52% 30.29 in 10.0 mi SSW 13.8 mph - N/A   Clear
1:15 AM 39.2 °F 34.2 °F 23.0 °F 52% 30.29 in 10.0 mi South 6.9 mph - N/A   Clear
1:35 AM 37.4 °F 32.1 °F 23.0 °F 56% 30.29 in 10.0 mi South 6.9 mph - N/A   Clear
1:55 AM 39.2 °F 33.0 °F 21.2 °F 49% 30.29 in 10.0 mi South 9.2 mph - N/A   Clear
2:15 AM 39.2 °F 32.0 °F 21.2 °F 49% 30.28 in 10.0 mi SSE 11.5 mph - N/A   Clear
2:35 AM 39.2 °F 32.0 °F 23.0 °F 52% 30.29 in 10.0 mi SSE 11.5 mph - N/A   Clear
2:55 AM 39.2 °F 32.5 °F 23.0 °F 52% 30.28 in 10.0 mi SSE 10.4 mph - N/A   Clear
3:15 AM 39.2 °F 33.6 °F 23.0 °F 52% 30.28 in 10.0 mi SSE 8.1 mph - N/A   Clear
3:35 AM 39.2 °F 33.6 °F 23.0 °F 52% 30.27 in 10.0 mi SSE 8.1 mph - N/A   Clear
3:55 AM 39.2 °F 31.6 °F 23.0 °F 52% 30.28 in 10.0 mi South 12.7 mph - N/A   Clear
4:15 AM 39.2 °F 29.3 °F 23.0 °F 52% 30.27 in 10.0 mi SSW 20.7 mph - N/A   Clear
4:35 AM 39.2 °F 30.2 °F 23.0 °F 52% 30.26 in 10.0 mi SSW 17.3 mph - N/A   Clear
4:55 AM 39.2 °F 29.3 °F 23.0 °F 52% 30.27 in 10.0 mi SW 20.7 mph - N/A   Clear
5:15 AM 39.2 °F 30.2 °F 23.0 °F 52% 30.27 in 10.0 mi South 17.3 mph - N/A   Clear
5:35 AM 39.2 °F 30.5 °F 23.0 °F 52% 30.27 in 10.0 mi South 16.1 mph - N/A   Clear
5:55 AM 39.2 °F 31.6 °F 23.0 °F 52% 30.26 in 10.0 mi South 12.7 mph - N/A   Clear
6:15 AM 39.2 °F 31.6 °F 23.0 °F 52% 30.27 in 10.0 mi South 12.7 mph - N/A   Clear
6:35 AM 37.4 °F 27.2 °F 23.0 °F 56% 30.26 in 10.0 mi SSW 19.6 mph - N/A   Clear
7:15 AM 39.2 °F 30.2 °F 23.0 °F 52% 30.26 in 10.0 mi SW 17.3 mph - N/A   Clear
7:35 AM 39.2 °F 29.0 °F 23.0 °F 52% 30.26 in 10.0 mi SSW 21.9 mph - N/A   Clear
7:55 AM 39.2 °F - 23.0 °F 52% 30.27 in 10.0 mi Calm Calm - N/A   Clear
8:15 AM 37.4 °F 34.9 °F 23.0 °F 56% 30.27 in 10.0 mi SSE 3.5 mph - N/A   Clear
8:35 AM 37.4 °F 31.4 °F 23.0 °F 56% 30.27 in 10.0 mi SSW 8.1 mph - N/A   Clear
8:55 AM 41.0 °F 33.9 °F 23.0 °F 49% 30.28 in 10.0 mi SSW 12.7 mph - N/A   Clear
9:15 AM 39.2 °F - 23.0 °F 52% 30.28 in 10.0 mi Calm Calm - N/A   Clear
9:35 AM 41.0 °F 34.7 °F 23.0 °F 49% 30.28 in 10.0 mi South 10.4 mph - N/A   Clear
9:55 AM 41.0 °F 33.1 °F 23.0 °F 49% 30.27 in 10.0 mi South 15.0 mph - N/A   Clear
10:15 AM 42.8 °F 37.0 °F 23.0 °F 46% 30.26 in 10.0 mi South 10.4 mph - N/A   Clear
10:35 AM 44.6 °F 43.1 °F 23.0 °F 43% 30.26 in 10.0 mi South 3.5 mph - N/A   Clear
10:55 AM 44.6 °F 39.7 °F 24.8 °F 46% 30.26 in 10.0 mi SSW 9.2 mph - N/A   Clear
11:15 AM 44.6 °F 39.2 °F 24.8 °F 46% 30.25 in 10.0 mi SSW 10.4 mph - N/A   Clear
11:35 AM 44.6 °F 38.4 °F 24.8 °F 46% 30.25 in 10.0 mi SSW 12.7 mph - N/A   Clear
11:55 AM 44.6 °F 38.4 °F 24.8 °F 46% 30.24 in 10.0 mi SSW 12.7 mph - N/A   Clear
12:15 PM 46.4 °F 42.9 °F 24.8 °F 43% 30.24 in 10.0 mi SSW 6.9 mph - N/A   Clear
12:35 PM 46.4 °F 42.4 °F 24.8 °F 43% 30.23 in 10.0 mi SW 8.1 mph - N/A   Clear
12:55 PM 46.4 °F 41.5 °F 24.8 °F 43% 30.22 in 10.0 mi SSW 10.4 mph - N/A   Partly Cloudy
1:15 PM 48.2 °F - 26.6 °F 43% 30.22 in 10.0 mi SSW 8.1 mph - N/A   Partly Cloudy
1:35 PM 50.0 °F - 24.8 °F 37% 30.21 in 10.0 mi SW 11.5 mph - N/A   Clear
2:15 PM 50.0 °F - 24.8 °F 37% 30.20 in 10.0 mi SSW 11.5 mph - N/A   Clear
2:35 PM 51.8 °F - 24.8 °F 35% 30.20 in 10.0 mi South 11.5 mph - N/A   Clear
2:55 PM 51.8 °F - 24.8 °F 35% 30.19 in 10.0 mi SSW 9.2 mph - N/A   Clear
3:15 PM 51.8 °F - 24.8 °F 35% 30.20 in 10.0 mi SSW 6.9 mph - N/A   Clear
3:55 PM 50.0 °F - 26.6 °F 40% 30.19 in 10.0 mi South 6.9 mph - N/A   Clear
4:15 PM 50.0 °F - 26.6 °F 40% 30.19 in 10.0 mi South 6.9 mph - N/A   Clear
4:35 PM 48.2 °F - 26.6 °F 43% 30.19 in 10.0 mi SW 8.1 mph - N/A   Clear
4:55 PM 46.4 °F 42.9 °F 28.4 °F 50% 30.19 in 10.0 mi SSW 6.9 mph - N/A   Clear
5:15 PM 46.4 °F 43.5 °F 26.6 °F 46% 30.18 in 10.0 mi South 5.8 mph - N/A   Clear
5:35 PM 44.6 °F 41.4 °F 26.6 °F 49% 30.18 in 10.0 mi SW 5.8 mph - N/A   Clear
5:55 PM 44.6 °F 40.7 °F 26.6 °F 49% 30.17 in 10.0 mi SSW 6.9 mph - N/A   Partly Cloudy
6:15 PM 46.4 °F 42.9 °F 26.6 °F 46% 30.18 in 10.0 mi SW 6.9 mph - N/A   Scattered Clouds
6:55 PM 46.4 °F 40.4 °F 24.8 °F 43% 30.18 in 10.0 mi SSW 13.8 mph - N/A   Scattered Clouds
7:15 PM 48.2 °F - 24.8 °F 40% 30.18 in 10.0 mi SSW 17.3 mph - N/A   Mostly Cloudy
7:35 PM 48.2 °F - 24.8 °F 40% 30.18 in 10.0 mi SSW 13.8 mph - N/A   Mostly Cloudy
7:55 PM 46.4 °F 40.4 °F 24.8 °F 43% 30.18 in 10.0 mi SSW 13.8 mph - N/A   Mostly Cloudy
8:15 PM 48.2 °F - 23.0 °F 37% 30.18 in 10.0 mi SSW 17.3 mph - N/A   Mostly Cloudy
8:35 PM 48.2 °F - 23.0 °F 37% 30.18 in 10.0 mi South 16.1 mph - N/A   Partly Cloudy
8:55 PM 46.4 °F 40.4 °F 23.0 °F 40% 30.17 in 10.0 mi South 13.8 mph - N/A   Clear
9:15 PM 46.4 °F 40.4 °F 23.0 °F 40% 30.17 in 10.0 mi South 13.8 mph - N/A   Mostly Cloudy
9:55 PM 46.4 °F 40.7 °F 23.0 °F 40% 30.16 in 10.0 mi SSW 12.7 mph - N/A   Overcast
10:15 PM 46.4 °F 41.1 °F 24.8 °F 43% 30.16 in 10.0 mi SSW 11.5 mph - N/A   Mostly Cloudy
10:35 PM 46.4 °F 40.7 °F 26.6 °F 46% 30.16 in 10.0 mi SSW 12.7 mph - N/A   Mostly Cloudy
10:55 PM 46.4 °F 40.4 °F 28.4 °F 50% 30.17 in 10.0 mi SSW 13.8 mph - N/A   Mostly Cloudy
11:15 PM 46.4 °F 40.1 °F 32.0 °F 57% 30.17 in 10.0 mi SSW 15.0 mph - N/A   Overcast
11:35 PM 46.4 °F 40.1 °F 32.0 °F 57% 30.17 in 10.0 mi SSW 15.0 mph - N/A   Overcast